TimeMST,TemperatureF,Dew PointF,Humidity,Sea Level PressureIn,VisibilityMPH,Wind Direction,Wind SpeedMPH,Gust SpeedMPH,PrecipitationIn,Events,Conditions,WindDirDegrees,DateUTC
12:05 AM,17.6,15.8,93,29.81,0.8,North,4.6,-,N/A,,Mist,360,2013-02-22 07:05:00
12:23 AM,15.8,14.0,93,29.81,1.2,NNE,6.9,-,N/A,,Scattered Clouds,20,2013-02-22 07:23:00
12:30 AM,17.6,14.0,86,29.82,0.8,ENE,6.9,-,N/A,,Mist,70,2013-02-22 07:30:00
12:50 AM,17.6,15.8,93,29.82,0.2,East,5.8,-,N/A,Fog,Light Freezing Fog,100,2013-02-22 07:50:00
12:53 AM,17.1,14.0,88,29.81,0.2,East,3.5,-,N/A,Fog,Light Freezing Fog,90,2013-02-22 07:53:00
1:30 AM,15.8,12.2,86,29.82,0.5,Variable,3.5,-,N/A,Fog,Light Freezing Fog,0,2013-02-22 08:30:00
1:42 AM,15.8,14.0,93,29.83,0.2,ENE,4.6,-,N/A,Fog,Light Freezing Fog,70,2013-02-22 08:42:00
1:53 AM,16.0,14.0,92,29.82,0.2,North,5.8,-,N/A,Fog,Light Freezing Fog,10,2013-02-22 08:53:00
2:53 AM,16.0,14.0,92,29.81,0.2,SSE,4.6,-,N/A,Fog,Light Freezing Fog,150,2013-02-22 09:53:00
3:53 AM,18.0,16.0,92,29.80,0.2,Calm,Calm,-,N/A,Fog,Light Freezing Fog,0,2013-02-22 10:53:00
4:53 AM,18.0,16.0,92,29.82,0.2,Calm,Calm,-,N/A,Fog,Light Freezing Fog,0,2013-02-22 11:53:00
5:53 AM,16.0,12.9,88,29.86,0.2,SSW,6.9,-,N/A,Fog,Light Freezing Fog,200,2013-02-22 12:53:00
6:53 AM,17.1,15.1,92,29.88,0.2,SW,4.6,-,N/A,Fog,Light Freezing Fog,230,2013-02-22 13:53:00
7:53 AM,17.1,14.0,88,29.92,0.2,Calm,Calm,-,N/A,Fog,Light Freezing Fog,0,2013-02-22 14:53:00
8:21 AM,21.2,17.6,86,29.87,1.0,South,5.8,-,N/A,,Mist,180,2013-02-22 15:21:00
8:26 AM,21.2,17.6,86,29.87,3.0,South,8.1,-,N/A,,Mostly Cloudy,180,2013-02-22 15:26:00
8:37 AM,23.0,19.4,86,29.88,5.0,SSE,8.1,-,N/A,,Mostly Cloudy,150,2013-02-22 15:37:00
8:41 AM,23.0,19.4,86,29.88,1.5,SSE,6.9,-,N/A,,Mostly Cloudy,160,2013-02-22 15:41:00
8:53 AM,24.1,21.0,88,29.90,5.0,South,5.8,-,N/A,,Mostly Cloudy,170,2013-02-22 15:53:00
9:53 AM,28.9,24.1,82,29.89,10.0,South,4.6,-,N/A,,Mostly Cloudy,190,2013-02-22 16:53:00
10:53 AM,32.0,19.9,61,29.88,10.0,South,6.9,-,N/A,,Mostly Cloudy,180,2013-02-22 17:53:00
11:53 AM,37.0,19.0,48,29.84,10.0,South,11.5,-,N/A,,Scattered Clouds,180,2013-02-22 18:53:00
12:26 PM,33.8,19.4,56,29.84,2.5,Variable,4.6,-,0.00,Snow,Light Snow,0,2013-02-22 19:26:00
12:33 PM,33.8,19.4,56,29.83,6.0,WNW,9.2,-,0.00,Snow,Light Snow,290,2013-02-22 19:33:00
12:53 PM,34.0,19.9,56,29.84,9.0,SSE,5.8,-,0.00,Snow,Light Snow,150,2013-02-22 19:53:00
1:53 PM,39.0,18.0,43,29.79,10.0,SW,11.5,16.1,0.00,,Mostly Cloudy,230,2013-02-22 20:53:00
2:53 PM,37.0,16.0,42,29.81,10.0,WSW,25.3,33.4,N/A,,Partly Cloudy,250,2013-02-22 21:53:00
3:53 PM,37.0,14.0,39,29.81,10.0,West,16.1,24.2,N/A,,Clear,260,2013-02-22 22:53:00
4:53 PM,35.1,15.1,44,29.82,10.0,West,20.7,-,N/A,,Partly Cloudy,260,2013-02-22 23:53:00
5:53 PM,30.9,16.0,54,29.88,10.0,WSW,21.9,32.2,N/A,,Mostly Cloudy,250,2013-02-23 00:53:00
6:53 PM,26.1,18.0,71,29.92,10.0,SW,11.5,-,N/A,,Clear,220,2013-02-23 01:53:00
7:53 PM,27.0,17.1,66,29.94,10.0,WSW,9.2,-,N/A,,Mostly Cloudy,240,2013-02-23 02:53:00
8:53 PM,28.0,16.0,61,29.92,10.0,Calm,Calm,-,N/A,,Overcast,0,2013-02-23 03:53:00
9:53 PM,24.1,17.1,75,29.91,10.0,Calm,Calm,-,N/A,,Partly Cloudy,0,2013-02-23 04:53:00
10:53 PM,21.9,12.9,68,29.90,10.0,North,4.6,-,N/A,,Clear,360,2013-02-23 05:53:00
11:53 PM,23.0,9.0,55,29.86,10.0,Calm,Calm,-,N/A,,Clear,0,2013-02-23 06:53:00